Location: Unspecified
(40.7945°N, 0.0000°E)
Time: 09:01:40
(UTC+00:00)

UWE-3 - Pass Details

Date: 14 August 2020
Orbit: 585 x 683 km, 97.6° (Epoch: 22 September)

Event Time Altitude Azimuth Distance (km) Brightness Sun altitude
Rises 03:50:08 0° 34° (NE) 2,818 ? -14.2°
Reaches altitude 10° 03:53:24 10° 62° (ENE) 1,913 ? -13.7°
Maximum altitude 03:55:22 13° 91° (E) 1,716 ? -13.4°
Drops below altitude 10° 03:57:21 10° 120° (ESE) 1,914 ? -13.1°
Sets 04:00:36 0° 148° (SSE) 2,821 ? -12.6°
